sim
Sign-in with your pilot id or email,
or register
Callsign
Passwort

Schedule Details

Flight Number: RYR2170 (2)
Departure: Thessaloniki International Airport (LGTS) at 12:25
Arrival: Bratislava M. R. Stefanik Airport (LZIB) at 14:15
Route: Ryanair Passenger Schedule. Enter filed route here before submitting Pirep.

Weather Information
Getting current METAR information for LGTS 280250Z 30010KT 9999 FEW030 15/10 Q1018 NOSIG
Getting current METAR information for LZIB 280300Z 26004KT CAVOK 12/06 Q1025

Schedule Frequency

Route Map